Location: Barraway
(52.3500°N, 0.2667°E)
Time: 23:22:38
(UTC+00:00)

Daily predictions for brighter satellites

Satellite Brightness Start Highest point End
(mag) Time Altitude Azimuth Time Altitude Azimuth Time Altitude Azimuth
Radarsat Rocket 4.3 17:37:19 10° SE 17:43:01 49° ENE 17:49:15 10° NNW
Meteor 1-11 4.3 17:38:30 10° S 17:44:05 67° E 17:49:49 10° NNE
Cosmos 2016 Rocket 4.2 17:40:06 10° NNW 17:46:21 81° W 17:52:40 10° S
CZ-2D R/B 2.8 17:43:43 10° S 17:46:46 78° WSW 17:49:50 10° NNW
Cosmos 2297 Rocket 2.8 17:41:55 10° S 17:47:01 36° ESE 17:52:10 10° NE
SAR-Lupe-5 4.2 17:50:37 10° NNE 17:53:05 52° ESE 17:55:28 10° S
NOSS 0 Rocket 4.4 17:47:43 10° NW 17:53:58 71° WSW 18:00:09 10° SSE
Cosmos 1814 Rocket 4.2 17:51:19 10° SSW 17:56:35 79° WNW 18:01:51 10° NNE
SPOT 5 4.4 17:53:37 10° E 17:56:51 18° NE 18:00:10 10° NNE
Cosmos 1867 4.0 17:52:30 10° SW 17:57:55 66° NW 18:03:23 10° NE
Cosmos 158 Rocket 4.0 17:53:19 10° SSW 17:58:10 79° WNW 18:03:06 10° NNE
SeaSat 1 2.6 17:53:36 10° SSE 17:58:29 79° WSW 18:03:26 10° NNW
SJ-6B 3.9 17:56:59 10° ESE 17:59:30 19° ENE 18:02:01 10° NNE
Cosmos 2233 Rocket 4.2 17:53:53 10° NNW 18:00:12 85° W 18:06:31 10° S
Meteor 2-1 Rocket 4.4 17:56:04 10° NNW 18:01:55 90° WNW 18:07:50 10° S
Cosmos 1125 Rocket 3.7 17:57:22 10° NNW 18:02:34 77° WSW 18:07:45 10° SSE
Cosmos 2228 3.8 17:59:19 10° N 18:02:59 28° ENE 18:06:38 10° SE
IRS-P3 4.3 17:57:43 10° SSE 18:03:03 81° WSW 18:08:25 10° NNW
Cosmos 1356 Rocket 4.1 17:59:40 10° NNW 18:03:32 55° W 18:07:26 10° S
Cosmos 2285 Rocket 4.1 17:57:11 10° NNW 18:03:41 89° E 18:10:05 10° SSE
PSLV R/B 3.7 18:00:22 10° SE 18:04:16 44° ENE 18:08:11 10° N
COSMO-SKYMED 1 3.0 18:00:31 10° NNE 18:04:19 34° E 18:08:05 10° SSE
NOSS 3-3 (C) 3.8 18:00:22 10° SSW 18:05:37 68° SE 18:11:59 10° NE
Meteor 1-31 Rocket 4.3 18:06:27 13° ENE 18:07:11 13° ENE 18:08:55 10° NNE
Cosmos 2151 Rocket 4.3 18:03:01 10° NNW 18:07:27 60° W 18:11:52 10° S
Cosmos 1570 Rocket 4.5 18:02:55 10° S 18:07:48 40° ESE 18:12:41 10° NE
CZ-2D R/B 3.3 18:05:10 10° SSE 18:09:04 65° ENE 18:13:06 10° N
Cosmos 1455 Rocket 3.1 18:06:37 10° N 18:10:51 54° ENE 18:15:03 10° SSE
YAOGAN 1 2.5 18:08:59 10° SSE 18:13:14 83° ENE 18:17:31 10° NNW
Cosmos 1607 4.1 18:07:36 10° SW 18:13:45 79° NW 18:20:01 10° NE
Cosmos 2263 Rocket 3.6 18:10:33 10° SE 18:14:05 17° E 18:16:42 13° ENE
Cosmos 1980 3.9 18:08:31 10° NNW 18:14:12 78° WSW 18:19:50 10° SSE
Cosmos 1975 Rocket 3.9 18:11:48 10° SE 18:15:26 27° E 18:19:03 10° NNE
USA 234 4.2 18:11:18 10° SSE 18:17:36 48° SW 18:23:55 10° WNW
Cosmos 2237 Rocket 2.4 18:13:41 10° NNW 18:19:22 77° WSW 18:25:03 10° SSE
COSMOS 2428 4.4 18:14:22 10° NW 18:19:36 37° WSW 18:24:48 10° S
USA 290 4.1 18:17:22 10° WSW 18:20:13 29° NW 18:23:04 10° N
DNEPR-1 R/B 3.9 18:18:52 10° NW 18:23:36 77° NE 18:29:16 10° SE
Cosmos 773 Rocket 4.4 18:19:17 10° S 18:24:14 43° ESE 18:29:13 10° NE
SJ-7 4.0 18:20:35 10° SSE 18:24:15 78° ENE 18:27:56 10° NNW
Spot 4 Rocket 4.0 18:19:54 10° SSE 18:25:01 85° ENE 18:30:09 10° NNW
NOAA 6 4.0 18:20:59 10° SSE 18:26:06 73° ENE 18:31:17 10° NNW
Okean 1 Rocket 3.8 18:22:54 10° NNW 18:27:14 56° W 18:31:29 10° S
Meteor 1-27 4.2 18:23:13 10° N 18:29:01 79° ENE 18:34:51 10° SSE
ARIANE 5 R/B 4.3 18:25:07 10° SSW 18:29:48 36° W 18:34:27 10° NNW
Cosmos 2208 Rocket 4.3 18:25:13 10° S 18:30:10 44° ESE 18:35:14 10° NE
Terra 3.5 18:31:23 14° NE 18:31:30 14° NE 18:33:58 10° NNE
NOSS 3-3 (A) 3.9 18:26:38 10° SW 18:31:59 81° NW 18:38:32 10° NE
CRYOSAT 2 4.5 18:28:12 10° NNE 18:33:01 53° E 18:37:48 10° SSE
Meteor 2-17 Rocket 4.5 18:30:56 10° SSE 18:36:49 54° E 18:42:42 10° NNE
Cosmos 44 Rocket 3.6 18:34:12 10° SSW 18:38:56 49° ESE 18:42:35 17° NE
Cosmos 1346 Rocket 3.4 18:36:13 10° SSE 18:39:20 28° E 18:40:09 25° ENE
Cosmos 2221 Rocket 4.0 18:36:30 10° SSW 18:40:57 66° WNW 18:45:28 10° N
Cosmos 1464 Rocket 4.0 18:35:22 10° N 18:41:44 66° ENE 18:47:59 10° SSE
Cosmos 1025 Rocket 4.0 18:37:49 10° SSW 18:42:01 50° WNW 18:46:17 10° N
SL-16 R/B 4.4 18:37:34 10° N 18:42:44 29° NW 18:47:55 10° WSW
Cosmos 1602 3.1 18:40:17 10° SSE 18:42:55 42° E 18:43:15 39° ENE
CZ-4C R/B 2.4 18:38:42 10° WSW 18:43:10 60° NW 18:48:41 11° NE
Cosmos 836 Rocket 4.4 18:40:28 10° SSW 18:45:43 73° ESE 18:51:02 10° NNE
SL-16 R/B 2.2 18:40:24 10° NNW 18:46:02 60° NE 18:50:49 14° SE
Cosmos 2227 Rocket 2.5 18:41:02 10° S 18:46:22 44° ESE 18:51:30 11° NE
NOSS 3-4 (A) 4.2 18:43:13 10° NW 18:49:49 67° SW 18:57:34 10° SSE
NOSS 3-4 (C) 4.2 18:43:30 10° NW 18:50:06 67° SW 18:57:53 10° SSE
Aureole 3 Rocket 4.1 18:48:44 10° NNW 18:52:25 38° W 18:55:26 10° SSW
Cosmos 2150 Rocket 4.1 18:48:16 10° NNW 18:53:27 79° WSW 18:58:34 10° SSE
ATLAS CENTAUR R/B 2.6 18:53:36 10° NNW 18:54:54 15° NNE 18:54:54 15° NNE
Cosmos 2298 Rocket 4.1 18:52:12 10° NNW 18:57:30 78° WSW 19:02:47 10° SSE
Lacrosse 5 rocket 1.9 18:56:51 10° WNW 19:00:11 38° N 19:01:16 30° NE
CZ-4 R/B 2.1 19:02:51 31° NE 19:02:51 31° NE 19:05:34 10° N
Resurs 01 Rocket 2.0 19:00:51 10° S 19:05:13 66° WSW 19:09:38 10° NNW
Cosmos 1782 2.4 19:02:19 10° N 19:05:56 88° E 19:09:30 10° S
ATLAS 2AS CENTAUR R/B 3.8 19:01:37 10° WNW 19:07:41 32° N 19:11:46 18° NE
CZ-4B R/B 3.7 19:11:59 34° ENE 19:12:41 36° ENE 19:17:29 10° N
CSL-04 Debris 4.1 19:12:12 20° SE 19:15:53 61° ENE 19:21:14 10° N
CZ-4B DEB 4.3 19:14:53 31° SE 19:17:18 53° ENE 19:22:36 10° N
ERS-1 Rocket 3.5 19:20:01 36° ENE 19:20:01 36° ENE 19:24:24 10° N
ARIANE 6 FM1 Upper Stage 2.5 19:16:47 10° NW 19:20:45 81° SW 19:21:31 56° SSE
CSL-04 Rocket 3.5 19:17:14 19° SSE 19:21:03 70° ENE 19:26:20 10° NNW
USA 267 3.4 19:17:49 26° ENE 19:21:44 71° NNW 19:28:15 10° W
RESURS DK-1 3.2 19:21:49 10° NNW 19:24:45 33° NNE 19:24:45 33° NNE
Cosmos 2082 Rocket 4.5 19:25:43 10° NNW 19:27:37 12° N 19:29:32 10° NNE
Cosmos 2297 Rocket 3.0 19:25:25 10° SW 19:30:55 51° NW 19:36:28 10° NNE
Cosmos 2058 4.3 19:28:13 10° S 19:29:54 25° S 19:29:54 25° S
SJ-6B 3.8 19:29:23 10° S 19:32:38 39° W 19:35:55 10° NNW
Cosmos 1943 3.3 19:27:09 10° NNW 19:32:46 55° NE 19:33:42 49° E
Tiangong 0.8 19:32:15 10° SSW 19:32:34 11° SSW 19:32:34 11° SSW
SPOT 5 2.8 19:31:23 29° SSE 19:34:00 85° ENE 19:39:11 10° NNW
Tsikada Rocket 3.9 19:30:10 10° S 19:36:09 58° E 19:42:14 10° NNE
Okean O Rocket 3.6 19:39:03 17° NNE 19:39:03 17° NNE 19:40:21 10° N
COSMO-SKYMED 1 4.3 19:35:56 10° N 19:39:32 30° WNW 19:43:07 10° SW
MOS 1 4.3 19:38:45 52° ESE 19:39:45 59° ENE 19:45:20 10° N
Meteor 1-31 Rocket 3.1 19:40:27 53° NW 19:40:27 53° NW 19:43:17 10° NNW
Cosmos 1544 Rocket 3.9 19:39:22 10° NNW 19:43:40 63° W 19:46:04 25° S
Iridium 4 Rocket 4.4 19:41:22 10° N 19:44:03 30° NNE 19:44:03 30° NNE
Cosmos 2219 3.9 19:41:54 10° S 19:45:34 37° SSE 19:45:34 37° SSE
Cosmos 1603 4.3 19:43:10 10° NNW 19:48:05 39° NE 19:48:05 39° NE
CZ-4B R/B 4.4 19:47:52 46° SW 19:48:39 55° WSW 19:52:28 10° NNW
Cosmos 1975 Rocket 4.4 19:48:56 10° SW 19:52:59 38° WNW 19:57:04 10° N
ADEOS 3.4 19:53:50 71° ENE 19:53:50 71° ENE 19:58:57 10° NNW
Cosmos 2263 Rocket 2.0 19:51:27 10° SSW 19:57:09 84° ESE 19:58:28 55° NE
Meteor 2-12 Rocket 4.4 20:04:14 61° NE 20:04:14 61° NE 20:09:33 10° NNE
Cosmos 1634 Rocket 4.0 20:00:21 10° NNW 20:06:43 84° W 20:09:11 40° S
Feng Yun 1-1 Rocket 4.4 20:06:21 46° S 20:08:12 77° WSW 20:14:10 10° NNW
Terra 2.8 20:10:00 39° N 20:10:00 39° N 20:12:59 10° NNW
PAYLOAD B 4.3 20:08:30 57° S 20:09:40 77° WSW 20:15:18 10° NNW
Cosmos 972 Rocket 4.3 20:10:07 10° NNW 20:15:03 62° WSW 20:15:24 61° SW
Cosmos 1833 Rocket 4.3 20:11:56 10° NNW 20:15:10 21° NNE 20:15:10 21° NNE
Cosmos 44 Rocket 4.4 20:15:43 10° WSW 20:20:29 43° NW 20:21:13 40° NNW
Cosmos 2344 3.3 20:15:15 10° SW 20:22:52 88° SE 20:24:32 58° NE
Cosmos 2279 Rocket 3.9 20:21:25 10° NNW 20:27:37 83° W 20:27:37 83° W
SL-16 R/B 3.8 20:24:58 10° NW 20:29:48 30° WSW 20:32:45 19° SSW
Cosmos 2227 Rocket 3.2 20:25:05 10° WSW 20:30:27 43° NW 20:33:22 25° N
CZ-4C R/B 3.7 20:27:58 10° WNW 20:32:34 30° N 20:33:37 29° N
CZ-4 R/B 3.8 20:37:50 19° WNW 20:37:50 19° WNW 20:39:26 10° NW
Lacrosse 5 rocket 4.0 20:33:56 10° WNW 20:34:41 15° WNW 20:34:41 15° WNW
CZ-4B R/B 4.2 20:53:50 42° WNW 20:53:50 42° WNW 20:58:16 10° NNW
ATLAS 2AS CENTAUR R/B 3.5 20:53:43 10° NW 20:59:11 41° N 20:59:11 41° N
USA 267 3.6 21:05:09 58° NNW 21:05:09 58° NNW 21:10:53 10° WNW
Okean O Rocket 4.5 21:16:18 13° NNW 21:16:18 13° NNW 21:16:52 10° NNW
Cosmos 2082 Rocket 4.5 21:10:14 10° NNW 21:12:11 16° N 21:12:11 16° N
Cosmos 2263 Rocket 4.2 21:36:58 10° W 21:40:15 24° WNW 21:40:15 24° WNW
